EGULEGMC

Guest
Details From EGUL - Lakenheath
To EGMC - Southend
Flight Number -
Tags Generated
Created
Modified
Stats Distance 50 nm / 93 km
Max Altitude 0 ft / 0 m
Waypoints 2
Social Downloads 1
Likes 0
Share VATSIM

Download

Looking for another format? Having issues loading an existing format? Contact us
Advertisement - Login to hide

Notes

Generated

Route

EGUL EGMC

ID Type Via Altitude Latitude Longitude Leg Dist Tot Dist Heading (true) Name
O EGUL APT - 0 ft / 0 m 52.40246˚ 0.54438˚ - 0 nm - -
O EGMC APT - 0 ft / 0 m 51.56725˚ 0.68627˚ 50 nm 50 nm 174° / 174° -

Altitude Profile

Advertisement - Login to hide

EGUL

Details ICAO EGUL
Name RAF Lakenheath
Region United Kingdom
Timezone Europe/London (UTC+1.0)
Stats Elevation 32 ft / 10 m (AMSL)
Location 52.409407° 0.561018°
Runways 1
Magnetic Variation 0.238° W

METAR

EGUL 241639Z AUTO 02005KT 9999 DZ FEW070 16/14 A3007 RMK AO2 RAB1556E27DZB27 SLP186 $

Decode

TAF

TAF TAF AMD EGUL 241638Z 2416/2518 07012KT 8000 -SHRA BKN015 QNH3009INS BECMG 2419/2420 03009KT 8000 -SHRA BKN010 610909 QNH3009INS BECMG 2422/2423 02009KT 6000 -SHRA BKN007 610909 QNH3004INS TEMPO 2422/2502 6000 -TSRA BKN007CB BECMG 2510/2511 03006KT 6000 -TSRA BKN010CB QNH3006INS BECMG 2514/2515 08009KT 9999 NSW BKN007 QNH3009INS TX24/2416Z TN11/2504Z

Decode

Departure Runways

ID Width Length Bearing (true) Bearing (mag) Surface Threshold Offset Overrun Length
06 151 ft / 46 m 8,973 ft / 2,735 m 55.59° 55.83° Asphalt 0 ft / 0 m 965 ft / 294 m
24 151 ft / 46 m 8,973 ft / 2,735 m 235.61° 235.85° Asphalt 0 ft / 0 m 988 ft / 301 m

EGMC

Details ICAO EGMC (SEN)
Name Southend
Region United Kingdom
Timezone Europe/London (UTC+1.0)
Stats Elevation 49 ft / 15 m (AMSL)
Location 51.571443° 0.695583°
Runways 1
Magnetic Variation 0.107° W

METAR

EGMC 241620Z 05010KT 010V070 CAVOK 20/13 Q1017

Decode

TAF

Not found

Destination Runways

ID Width Length Bearing (true) Bearing (mag) Surface Threshold Offset Overrun Length
06 121 ft / 37 m 5,230 ft / 1,594 m 54.10° 54.21° Asphalt 558 ft / 170 m 0 ft / 0 m
24 121 ft / 37 m 5,230 ft / 1,594 m 234.11° 234.22° Asphalt 466 ft / 142 m 0 ft / 0 m

Approach Navaids

Runway Type Ident Frequency Range Bearing (true) Bearing (mag) Slope Elevation
24 Localiser IND 111.35 MHz 18 nm / 33 km 234.08° 234.19° - 49 ft / 15 m (AMSL)
24 Glidescope IND 111.35 MHz 10 nm / 19 km 234.10° 234.21° 3.50° 49 ft / 15 m (AMSL)
24 DME IND 111.35 MHz 18 nm / 33 km - - - 49 ft / 15 m (AMSL)